[Date Prev][Date Next][Thread Prev][Thread Next][Date Index][Thread Index]

[jamsat-news:1481] jas2info #225



========================   最新情報   ==============================

        Last updated :Sat.12MAY2001  1900 (JST) #225
        
====================================================================
   
  1)アマチュア通信衛星情報、FOシリーズの軌道要素、テレメトリ、QSOの
   状況等をまとめてみました.
   
   FO−29の2001年5月12(土)の9:53(JST)のパスでは
  JARLのホームページのとうりアナログ運用でした。観測したテレメトリーと
  分析結果を掲載しておきます.

AS23376C1   12MAY2001
9:53-10:05(JST)
Freq.435.802-.788MHz

HI HI AE C7 88 55 00 D4 7E 9B 09 47 6E 78 7D 60 92 90 B0 88 AC A8 AC AE A9
HI HI AE C7 88 55 00 D4 7E 9B 09 47 72 78 84 60 92 90 B0 83 AC A8 AC AE A9 
HI HI AE C7 88 55 00 D4 7E 9B 09 47 77 79 89 60 92 90 B0 83 AC A8 AC AE A9 
HI HI AE C7 88 55 00 D4 7E 9B 09 47 7C 7C 8C 60 92 91 B0 8F AC A8 AC AE A9 
HI HI AE C7 88 55 00 D4 7E 9B 09 47 80 81 8D 60 93 91 B0 67 AC A8 AC AE A9 
HI HI AE C7 88 55 00 D4 7E 9B 09 47 84 89 7B 60 92 91 B0 7F AB A8 AB AE A9 
HI HI AE C7 88 55 00 D4 7E 9B 09 47 87 8D 8A 60 92 91 B0 80 AB A8 AC AD A9 
HI HI AE C7 88 55 00 D4 7E 9B 09 47 8A 94 88 60 93 91 B0 6C AB A7 AC AD A9 
HI HI AE C7 88 55 00 D4 7E 9B 08 47 8B 9C 86 60 93 91 B0 60 AB A7 AB AD A9 
HI HI AE C7 88 55 00 D4 7E 9B 09 47 8B A4 84 60 93 91 B0 52 AB A7 AB AD A9 
HI HI AE C7 88 55 00 D4 7E 9B 09 47 8A AC 81 60 93 91 B0 72 AB AN AB AD A9
HI HI AE C7 88 55 00 D4 7E 9B 09 47 88 B3 7C 60 93 91 B0 72 AA A7 AB AD A9 
HI HI AE C7 88 55 00 D4 7E 9B 09 47 85 B9 78 60 93 91 B0 68 AA A7 AB AD A9 
HI HI AE C7 88 55 00 D4 6E 9B 09 47 81 BD 70 60 93 91 B0 7C AA A7 AA AC A9 
HI HI AE C7 88 55 00 D4 7E 9B 09 47 7C C0 6D 60 93 91 B0 66 AA A7 AA AC A9 
HI HI AE C7 88 55 00 D4 7E 9B 09 47 77 C0 6D 60 93 92 B0 5D AA A7 AA AC A9 

AS23363C1  11MAY2001
10:52-10:55(JST)
FREQ.435.797-.795MHz
                                       51 69 61 93 91 B0 8C B2 AE AD B1 AE 
HI HI AE C7 88 55 00 D4       09 56 38 55 79 60 93 91 B0 6E B0 B0 AF AE AE 
HI HI AE C7 88 55 07 D4 15 E3 09 5B 38 51 7E 60 93 91 B0 92 B0 B0 AF AE AE 
HI HI AE C7 88 55 00 D4 15 E3 09 68 38 56 4E 61 93  

AS23329C1   08MAY2001
21:16-21:27(JST)
FREQ.435.802-.785MHz

HI HI AE C7 88 55 00 D4 19 9D 09 51 89 72 52 61 95 93 B0 65 AC A2 AD B1 AC 
HI HI AE C7 88 55 00 D4 19 9D 09 51 84 6E 51 61 95 93 B0 5A AC A2 AD B1 AC 
HI HI AE C7 88 55 00 D4 19 0D 09 51 7D 69 4F 62 95 93 AF 6D AC A2 AD B1 AC 
HI HI AE C7 88 55 00 D4 19 0D 09 51 78 64 4F 62 95 93 AE 4E AB A2 AD B1 AC 
HI HI AE C7 88 55 00 D4 19 0D 09 51 72 5F 4E 62 95 93 AD 5C AB A1 TD B1 AC 
HI HI AE C7 88 55 00 D4 19 0D 09 51 6E 59 03 87 89 89 94 83 AB A1 AD B1 AC 
HI HI AE 07 88 55 00 D4 19 0D 09 51 68 54 00 87 86 85 90 7F AB A1 AD B1 AC 
HI HI AE 07 88 55 00 D4 19 0D 09 51 63 4E 00 89 85 84 90 78 AB A1 AD B1 AC 
HI HI AE 07 88 55 0O D4 19 0D 09 51 5E 4A 00 8C 85 84 8F 6C AB A1 AD B1 AC 
HI HI AE 07 88 55 00 D4 19 0D 09 51 59 46 00 89 84 83 8F 75 AB A1 AD B1 AC
HI HI AE 07 88 55 00 D4 19 9D 99 51 55 44 00 8F 82 83 8E 77 AB A2 AD B1 AC 
HI HI AE 07 88 55 00 D4 19 0D 09 51 4E 40 00 8F 84 83 8E 8B AB A2 AD B0 AB 
HI HI AE 07 88 55 00 D4 19 0D 09 51 4B 40 00 8A 83 83 8E 9B AB A2 AD B1 AB 
HI HI SE 07 88 55 00 D4 19 0D 09 51 48 41 00 88 83 82 8E 73 AB A2 AD B1 AB 
HI HI AE 07 88 55 00 D4 19 0D 09 51 4D 44 00 87

AS23241C1    WED.02MAY2001 
10:12-10:26(JST)
Freq.435.803-.789MHz

HI HI AE C7 88 55 00 D4 15 0C 09 48 53 50 56 5C 92 91 B0 8E AF AE AF AD AB 
HI HI AE C7 88 55 00 D4 15 0C 09 48 5C 54 52 60 91 8F B0 8D AF AE AE AD AB 
HI HI AE C7 88 55 00 D4 15 0C 09 48 65 5A 54 5D 90 8F AD 89 AF AD AE AD AB 
HI HI AE 07 88 55 00 D4 15 0C 09 48 6F 5E 57 5B 92 91 B0 75 AF AD AE AD AB 
HI HI AE C7 88 55 00 D4 15 0C 09 48 78 62 55 60 91 90 B0 73 AF AD AE AD AB 
HI HI AE C7 88 55 00 D4 15 0C 09 48 82 66 58 60 91 8F B0 76 AF AD AE AD AB 
HI HI AE C7 88 55 00 D4 15 0C 09 48 8C 69 5B 60 91 8F B0 70 AE AD AE AD AB 
HI HI AE C7 88 55 00 D4 15 0C 09 48 94 6C 5E 5F 90 8F B0 85 AE AD AE AD AB 
HI HI AE C7 88 55 00 D4 15 0C 09 4O 9A 6E 63 5F 91 8F B0 70 AE AD AE AD AB 
HI HI AE C7 88 55 00 D4 15 0C 09 48 9F 6F 65 5F 91 8F B0 7D AE AD AE AD AB 
HI HI AE C7 88 55 00 D4 15 0C 09 48 A1 70 65 5F 91 8F B0 89 AE AD AE AD AB 
HI HI AE C7 88 55 00 D4 15 0C 09 48 A2 70 68 5F 91 8F B0 8F AE AD AE AD AB 
HI HI AE C7 88 55 00 D4 15 0C 09 48 A0 71 68 60 92 8F B0 82 AE AC AE AD AB
HI HI AE C7 88 55 00 D4 15 0C 09 48 9B 71 66 60 91 90 B0 84 AE AC AE AD AB 
HI HI AE C7 88 55 00 D4 15 0C 09 48 95 71 67 5F 91 90 B0 62 AE AC AD AC AB 
HI HI AE C7 88 55 00 D4 15 0C 09 48 8D 72 68 60 91 90 B0 7F AD AC AD AC AB 
HI HI AE C7 88 55 00 D4 15 0C 09 48 83 73 69 60 91 90 B0 83 AD AB AD AC AB 
HI HI AE C7 88 55 00 D4 15 0C 09 48 78 75 68 60 92 90 B0 7C AD AB AD AC AB 
HI HI AE C7 88 55 00 D4 15 0C 09 48 6C 77 6A 60 92 90 B0 8D AD AB AD AC AB 
HI HI AE C7 88 55 00 D4 15 0C 09 48 60 7A 6B 60 92 90 B0 6E AD AB AD AC AB 
HI HI AE C7 88 55 00 D4 15 0C 09 48 54 7D 6E 60 92 90 B0 6E AD AB AD AC AB 

 ------------------------ FO-29の軌道要素 ------------------------------        
 
  ■ 軌道要素1:「jamsat−keps:1000」より         
          SB KEPS @ AMSAT  $ORB01130.N
          2Line Orbital Elements 01130.AMSAT

HR AMSAT ORBITAL ELEMENTS FOR AMATEUR SATELLITES IN NASA FORMAT
FROM WA5QGD FORT WORTH,TX May 10, 2001
SEND SUBSCRIBE/UNSUBSCRIBE TO majordomo@amsat.org ONLY
BID: ORB01130.N

 DECODE 2-LINE ELSETS WITH THE FOLLOWING KEY:
 1 AAAAAU 00  0  0 BBBBB.BBBBBBBB  .CCCCCCCC  00000-0  00000-0 0  DDDZ
 2 AAAAA EEE.EEEE FFF.FFFF GGGGGGG HHH.HHHH III.IIII JJ.JJJJJJJJKKKKKZ
 KEY: A-CATALOGNUM B-EPOCHTIME C-DECAY D-ELSETNUM E-INCLINATION F-RAAN
 G-ECCENTRICITY H-ARGPERIGEE I-MNANOM J-MNMOTION K-ORBITNUM Z-CHECKSUM

FO-29
1 24278U 96046B   01130.70208945  .00000081  00000-0  11498-3 0  4134
2 24278  98.5483   1.0047 0351989  98.9998 265.1144 13.52771455233574

 ■ 軌道要素2:「jamsat−keps:10101」より                     

        SB KEPS @ AMSAT  $ORB01130.O
        Orbital Elements  01130.OSCAR

HR AMSAT ORBITAL ELEMENTS FOR OSCAR SATELLITES
FROM WA5QGD FORT WORTH,TX May 10, 2001
SEND SUBSCRIBE/UNSUBSCRIBE TO majordomo@amsat.org ONLY
BID: ORB01130.O
TO ALL RADIO AMATEURS BT
 
Satellite: FO-29
Catalog number: 24278
Epoch time:      01130.70208945
Element set:     413
Inclination:       98.5483 deg
RA of node:         1.0047 deg
Eccentricity:    0.0351989
Arg of perigee:    98.9998 deg
Mean anomaly:     265.1144 deg
Mean motion:   13.52771455 rev/day
Decay rate:        8.1e-07 rev/day^2
Epoch rev:           23357
Checksum:              321

-------------------  FO-29(JAS-2)のテレメトリに関する情報  ---------------------- 
 
2)上記5月12日(土)のテレメトリ最終行を分析しておきます.

AS23376C1   12MAY2001
9:53-10:05(JST)
Freq.435.802-.788MHz

HI HI AE C7 88 55 00 D4 7E 9B 09 47 77 C0 6D 60 93 92 B0 5D AA A7 AA AC A9 

テレメトリ   内 容       換算算値 単 位  
3C	磁気センサーZ軸=	58333.3	[nT]
3D	磁気センサX軸	=	94117.6	[nT]
4A	太陽電池発生電流=	 1068.6	[mA]
4B	B充放電電流	=	 -118.4	[mA]
4C	B端子電圧	=	   15.8	[V]
4D	B中間端子電圧	=	    7.0	[V]
5A	バス電圧	=	   17.3	[V]
5B	JTA送信電力	=	  506.4	[mW]
5C 	構体温度1	=	   15.9	[℃]
5D	構体温度2	=	   17.0	[℃]
6A	構体温度3	=	   15.9	[℃]
6B	構体温度4	=	   15.1	[℃]
6C	Bセル温度	=	   16.2	[℃]
   	
 ========================== FO-29(ふじ3号)のQSO情報等 ======================
   
 3)[jamsat-bb:

 ===============================================================================
   4)JARL のホームページに運用予定が記載されていましたのでご紹介します.
       ( http://www.jarl.or.jp/Japanese/3_Fuji/new/uy.htm )

        ■ ふじ3号/FOー29/JAS-2 ■  
   
     *** 運用予定について ***

     4月2日 〜 7月2日 アナログ系運用

  *なお,運用予定は都合により変更することがありますので予めご了承願います。

 照会先 : lab@jarl.or.jp

 最新の情報はテレホンサービス(03−3942−1000)をお聞きください。  
 以後の運用につきましては平成13年7月上旬にお知らせ致します。    
    
-----------------------    FO−20(JAS-1b)道要素   -------------------------
  5)
  ■ 軌道要素1 :出典はFO-29「ふじ3号」に同じ.
  
FO-20
1 20480U 90013C   01130.74959238 -.00000076  00000-0 -10217-3 0  3116
2 20480  99.0622 206.1644 0541020  33.9674 329.4859 12.83292077527297
 
  ■ 軌道要素2 :出典はFO−29「ふじ3号」に同じ.
               
Satellite: FO-20
Catalog number: 20480
Epoch time:      01130.74959238
Element set:     311
Inclination:       99.0622 deg
RA of node:       206.1644 deg
Eccentricity:    0.0541020
Arg of perigee:    33.9674 deg
Mean anomaly:     329.4859 deg
Mean motion:   12.83292077 rev/day
Decay rate:       -7.6e-07 rev/day^2
Epoch rev:           52729
Checksum:              299
 
 --------------------------------------------------------------------------------
 
         ■ ふじ2号/FO−20/JAS-1b ■      
            
          「ふじ2号」 現況                                                                                  
             
   JAS-1b(ふじ2号)のCWテレメトリ信号に,1997年10月12日12時(JST)の
 日本上空通過時,3桁の数字が繰り返されるはずが3個の長音の繰り返しとなっているという
 異常が発見されました。この不具合は次の通過時からは回復していましたが13日15時20分の
 通過時に再び観測されました。現在はA0の送信が続いています。衛星のアナログ系中継モード
 動作は異常が無く,正常時のテレメトリ内容からは衛星の動作に異常は認められません。従って,
 直ちに衛星のミッションに影響することは無いと予想されますので,当面はアナログ系中継
 モードを継続します。衛星は既に打ち上げてから7年8ヶ月を経ておりますので,今後は監視を
 強化する予定です。アマチュア各位のレポートをお待ちします。
 -------------------------------------------------------------------------------- 
  1997年10月14日 00時35分 確認のテレメトリ音 151 KB (A0) 
  1997年10月14日 11時10分 確認のテレメトリ音 216 KB (異常キーイング) 

  以上 JARLのホ−ムページの http://www.jarl.or.jp/Japanese/3_Fuji/new/fuji.htm

===================== FO-20 ふじ2号 のテレメトリ観測結果 ====================

   12月22日(金)の12:21(JST)のパスの観測結果では以前観測した
 単一周波数のドップラー効果で周波数がずれていくのみの状態に戻っておりました。
                                         
   =============   JAS-2 (ふじ3号)と現在までの情報   ===========
  
  A.電話によるふじ3号の運用情報
      社団法人日本アマチュア連盟によるサービス
           TEL .   03− 3942 − 1000
  B.アマチュア無線FAXサービス
      JARLによるふじ3号の軌道情報(オービットカレンダー)
         FAX No.  03− 3233 −0055
  C.WWWブラウザで情報を簡単に見れる人のためにJAS−2
     ふじ3号の衛星としての運用されるまでの名前)の概要、打ち上げ
     までの状況、運用中における状況を説明したホームページを紹介し
     ておきます.
     社団法人日本アマチュア無線連盟(JARL)のホームページ

          http://www.jarl.or.jp/Japanese/3_Fuji/jasmenu.htm
 
     宇宙開発事業団(NASDA)ホームページ 
          http://www.nasda.go.jp/
         打上げ衛星 :地球観測プラットフォーム技術衛星(ADEOS) 
                       アマチュア衛星3号(JAS-2)
          http://yyy.tksc.nasda.go.jp/Home/Press/Press-j/jas-2_j.html        

  D.JAMSATによる軌道情報の活用
        JAMSATのホームページまたはjamsat−kepsの軌道要素より
      衛星の軌道情報を得る.
     JAMSATホームページ
               URL    http://www.jamsat.or.jp
       上記ホームページでは各地で行われるアマチュア通信衛星に関する
      ミューティングのお知らせや世界のアマチュア衛星に関する情報が
      満載されています.
 ========================================================================  
     JAMSATのメンバーのご協力によりJH6MME(高山 秀造)が
    執筆・編集を担当しております.ご指摘の意見、疑問やこのようにしたら
    というアイデアがありましたら小さなことでもかまいませんので気軽に下
    記アドレスまでご連絡ください.jamsat−newsからjas2
    infoへの転載をJH4PHW局坂井さんに担当して頂いております.  
                  E-mail : jh6mme@jamsat.or.jp : jh4phw@jamsat.or.jp
 ===============================   END  ===============================